Starlink 2494

operational
NORAD ID: 48487 Int'l Des: 2021-040 Owner: SPXS Country: US Constellation: starlink
LEOCIRCULARSTARLINK_TYPE

About Starlink 2494

Description loading...

Live Position

Loading 3D Globe...

Upcoming Passes

Altitude History

Altitude vs Time

uPlot chart will show altitude changes over time

Two-Line Element Set

1 48487U 21040BM 26037.33335648 .00064731 00000-0 21839-2 0 9997
2 48487 53.1603 339.6706 0001391 82.3577 43.4255 15.30123080 5798
Epoch: Feb 6, 2026 • Age: 5 hours

Current Status

Altitude 483.9 km
Velocity 7.62 km/s
Sub-Earth Point -26.83°S, 152.18°W
Launch Date May 9, 2021
Age 4.7 years
Type internet

Technical Details

Classification Payload
Mass 260.00 kg
Dry Mass 248.00 kg
Total Mass 260.00 kg
Length 0.20 m
Diameter 2.80 m
Span 9.00 m
Shape Box + pan
Manufacturer SPXS
Bus Type Starlink
Phase Status In Orbit
Owner/State SPXS/US

Large Constellations

Loading constellations...